Weather History for Renton, WA

Change the Weather History Date:

Friday, November 2, 2012

  Actual Average Record
Temperature  
Mean Temperature 54 °F -  
Max Temperature 60 °F 53 °F 64 °F (2010)
Min Temperature 50 °F 39 °F 28 °F (2002)
Degree Days  
Heating Degree Days 10    
Growing Degree Days 4 (Base 50)    
Moisture  
Dew Point 51 °F    
Average Humidity 91    
Maximum Humidity 100    
Minimum Humidity 75    
Precipitation  
Precipitation 0.20 in - - ()
Sea Level Pressure  
Sea Level Pressure 30.02 in    
Wind  
Wind Speed 1 mph (SSE)    
Max Wind Speed 5 mph    
Max Gust Speed -    
Visibility 9 miles    
Events Rain    
Averages and records for this station are not official NWS values.
T = Trace of Precipitation, MM = Missing Value Source: NWS Daily Summary

Daily Weather History Graph

Daily Weather History Graph

Search for Another Location

Airport:

Trip Planner

Search our weather history database for the weather conditions in past years. The results will help you decide how hot, cold, wet, or windy it might be!

Date:

Astronomy

Nov. 02, 2012 Rise Set
Actual Time 7:55 AM PDT 5:49 PM PDT
Civil Twilight 7:22 AM PDT 6:21 PM PDT
Nautical Twilight 6:46 AM PDT 6:57 PM PDT
Astronomical Twilight 6:10 AM PDT 7:33 PM PDT
Moon 8:32 PM PDT (11/2) 11:28 AM PDT (11/2)
Length of Visible Light 10h 58m
Length of Day
9h 54m
Waning Gibbous, 86% of the Moon is Illuminated
Nov 2
Waning Gibbous
Nov 6
Last Quarter
Nov 13
New
Nov 20
First Quarter
Nov 28
Full

Hourly Weather History & Observations

Time (PDT) Temp. Dew Point Humidity Pressure Visibility Wind Dir Wind Speed Gust Speed Precip Events Conditions
12:53 AM 54.0 °F 51.1 °F 90% 30.04 in 10.0 mi Calm Calm - N/A   Mostly Cloudy
1:53 AM 54.0 °F 51.1 °F 90% 30.04 in 10.0 mi SSE 4.6 mph - N/A   Overcast
2:53 AM 54.0 °F 51.1 °F 90% 30.05 in 10.0 mi Calm Calm - N/A   Overcast
3:53 AM 53.1 °F 51.1 °F 93% 30.05 in 10.0 mi Calm Calm - N/A   Overcast
4:53 AM 53.1 °F 51.1 °F 93% 30.05 in 10.0 mi SE 3.5 mph - N/A   Overcast
5:53 AM 53.1 °F 51.1 °F 93% 30.05 in 10.0 mi Calm Calm - N/A   Overcast
6:53 AM 52.0 °F 50.0 °F 93% 30.03 in 10.0 mi Calm Calm - N/A   Clear
7:53 AM 50.0 °F 48.9 °F 96% 30.02 in 10.0 mi Calm Calm - N/A   Clear
8:53 AM 50.0 °F 50.0 °F 100% 30.04 in 10.0 mi Calm Calm - N/A   Clear
9:53 AM 51.1 °F 51.1 °F 100% 30.04 in 10.0 mi Calm Calm - N/A   Clear
10:53 AM 53.1 °F 51.1 °F 93% 30.04 in 10.0 mi Calm Calm - N/A   Clear
11:53 AM 55.9 °F 50.0 °F 80% 30.04 in 10.0 mi Calm Calm - N/A   Clear
12:53 PM 57.9 °F 50.0 °F 75% 30.02 in 10.0 mi Calm Calm - N/A   Scattered Clouds
1:53 PM 57.9 °F 51.1 °F 78% 30.00 in 10.0 mi North 3.5 mph - N/A   Clear
2:53 PM 59.0 °F 51.1 °F 75% 29.99 in 10.0 mi NNW 3.5 mph - N/A   Overcast
3:53 PM 57.9 °F 50.0 °F 75% 29.99 in 10.0 mi Calm Calm - N/A   Mostly Cloudy
4:53 PM 57.9 °F 52.0 °F 81% 30.00 in 6.0 mi South 3.5 mph - 0.01 in Rain Light Rain
5:53 PM 55.9 °F 53.1 °F 90% 30.00 in 5.0 mi Calm Calm - 0.09 in Rain Light Rain
6:53 PM 55.0 °F 53.1 °F 93% 30.00 in 10.0 mi Calm Calm - 0.03 in   Mostly Cloudy
7:53 PM 54.0 °F 53.1 °F 97% 29.99 in 8.0 mi Calm Calm - N/A   Overcast
8:02 PM 53.6 °F 53.6 °F 100% 29.98 in 10.0 mi Calm Calm - N/A   Overcast
8:53 PM 54.0 °F 53.1 °F 97% 29.99 in 9.0 mi Calm Calm - 0.00 in   Overcast
9:53 PM 53.1 °F 53.1 °F 100% 29.99 in 8.0 mi Calm Calm - 0.01 in Rain Light Rain
10:53 PM 52.0 °F 52.0 °F 100% 29.98 in 10.0 mi Calm Calm - 0.06 in Rain Light Rain
11:53 PM 51.1 °F 51.1 °F 100% 29.98 in 10.0 mi Calm Calm - 0.00 in   Overcast